date,time,SUV Intensity [MED/Hr],UV Index,Daily total [MED],Since Last [MED]
14/04/2022,00:06:54,0.000,0.0,0.0,0.0
14/04/2022,00:07:53,0.000,0.0,0.0,0.0
14/04/2022,00:08:54,0.001,0.0,0.0,0.0
14/04/2022,00:09:53,-0.000,0.0,0.0,0.0
14/04/2022,00:10:53,-0.000,0.0,0.0,0.0
14/04/2022,00:11:53,0.000,0.0,0.0,0.0
14/04/2022,00:12:53,0.000,0.0,0.0,0.0
14/04/2022,00:13:53,0.000,0.0,0.0,0.0
14/04/2022,00:14:54,-0.001,0.0,0.0,0.0
14/04/2022,00:15:54,0.000,0.0,0.0,0.0
14/04/2022,00:16:54,0.000,0.0,0.0,0.0
14/04/2022,00:17:54,-0.000,0.0,0.0,0.0
14/04/2022,00:18:53,0.000,0.0,0.0,0.0
14/04/2022,00:19:54,0.000,0.0,0.0,0.0
14/04/2022,00:20:53,0.001,0.0,0.0,0.0
14/04/2022,00:21:54,0.001,0.0,0.0,0.0
14/04/2022,00:23:02,0.000,0.0,0.0,0.0
14/04/2022,00:23:53,0.000,0.0,0.0,0.0
14/04/2022,00:24:54,0.000,0.0,0.0,0.0
14/04/2022,00:25:53,0.000,0.0,0.0,0.0
14/04/2022,00:26:54,0.000,0.0,0.0,0.0
14/04/2022,00:27:53,0.001,0.0,0.0,0.0
14/04/2022,00:28:54,0.000,0.0,0.0,0.0
14/04/2022,00:29:53,0.001,0.0,0.0,0.0
14/04/2022,00:30:54,0.000,0.0,0.0,0.0
14/04/2022,00:31:54,0.000,0.0,0.0,0.0
14/04/2022,00:32:53,0.000,0.0,0.0,0.0
14/04/2022,00:33:54,0.000,0.0,0.0,0.0
14/04/2022,00:34:53,0.000,0.0,0.0,0.0
14/04/2022,00:36:02,0.000,0.0,0.0,0.0
14/04/2022,00:36:53,0.000,0.0,0.0,0.0
14/04/2022,00:37:54,0.000,0.0,0.0,0.0
14/04/2022,00:38:53,0.000,0.0,0.0,0.0
14/04/2022,00:39:54,0.000,0.0,0.0,0.0
14/04/2022,00:40:53,0.001,0.0,0.0,0.0
14/04/2022,00:41:54,-0.001,0.0,0.0,0.0
14/04/2022,00:42:54,0.000,0.0,0.0,0.0
14/04/2022,00:44:02,0.000,0.0,0.0,0.0
14/04/2022,00:44:55,0.000,0.0,0.0,0.0
14/04/2022,00:46:02,0.000,0.0,0.0,0.0
14/04/2022,00:47:02,0.001,0.0,0.0,0.0
14/04/2022,00:48:54,0.000,0.0,0.0,0.0
14/04/2022,00:49:53,0.000,0.0,0.0,0.0
14/04/2022,00:50:55,0.000,0.0,0.0,0.0
14/04/2022,00:51:54,0.002,0.0,0.0,0.0
14/04/2022,00:52:53,0.000,0.0,0.0,0.0
14/04/2022,00:53:53,0.000,0.0,0.0,0.0
14/04/2022,00:54:54,0.000,0.0,0.0,0.0
14/04/2022,00:55:53,0.000,0.0,0.0,0.0
14/04/2022,00:56:54,0.000,0.0,0.0,0.0
14/04/2022,00:57:53,0.000,0.0,0.0,0.0
14/04/2022,00:58:54,0.000,0.0,0.0,0.0
14/04/2022,00:59:53,0.000,0.0,0.0,0.0
14/04/2022,01:00:54,0.000,0.0,0.0,0.0
14/04/2022,01:01:53,0.001,0.0,0.0,0.0
14/04/2022,01:02:54,0.001,0.0,0.0,0.0
14/04/2022,01:04:02,0.000,0.0,0.0,0.0
14/04/2022,01:04:53,0.000,0.0,0.0,0.0
14/04/2022,01:05:54,0.000,0.0,0.0,0.0
14/04/2022,01:06:53,0.001,0.0,0.0,0.0
14/04/2022,01:07:54,0.000,0.0,0.0,0.0
14/04/2022,01:08:53,-0.000,0.0,0.0,0.0
14/04/2022,01:10:02,0.001,0.0,0.0,0.0
14/04/2022,01:10:53,0.001,0.0,0.0,0.0
14/04/2022,01:11:54,0.000,0.0,0.0,0.0
14/04/2022,01:12:54,0.000,0.0,0.0,0.0
14/04/2022,01:14:01,-0.001,0.0,0.0,0.0
14/04/2022,01:15:54,0.000,0.0,0.0,0.0
14/04/2022,01:16:54,0.000,0.0,0.0,0.0
14/04/2022,01:17:54,0.000,0.0,0.0,0.0
14/04/2022,01:18:53,0.000,0.0,0.0,0.0
14/04/2022,01:19:55,0.000,0.0,0.0,0.0
14/04/2022,01:20:54,0.000,0.0,0.0,0.0
14/04/2022,01:21:55,0.000,0.0,0.0,0.0
14/04/2022,01:22:53,0.000,0.0,0.0,0.0
14/04/2022,01:24:02,0.000,0.0,0.0,0.0
14/04/2022,01:25:54,0.001,0.0,0.0,0.0
14/04/2022,01:26:54,0.000,0.0,0.0,0.0
14/04/2022,01:27:54,-0.001,0.0,0.0,0.0
14/04/2022,01:28:53,0.000,0.0,0.0,0.0
14/04/2022,01:29:54,0.001,0.0,0.0,0.0
14/04/2022,01:30:53,0.001,0.0,0.0,0.0
14/04/2022,01:31:54,0.001,0.0,0.0,0.0
14/04/2022,01:32:54,0.000,0.0,0.0,0.0
14/04/2022,01:34:02,0.000,0.0,0.0,0.0
14/04/2022,01:35:54,0.000,0.0,0.0,0.0
14/04/2022,01:36:53,0.001,0.0,0.0,0.0
14/04/2022,01:37:54,0.000,0.0,0.0,0.0
14/04/2022,01:38:54,0.000,0.0,0.0,0.0
14/04/2022,01:39:54,0.000,0.0,0.0,0.0
14/04/2022,01:40:54,0.000,0.0,0.0,0.0
14/04/2022,01:41:54,0.000,0.0,0.0,0.0
14/04/2022,01:42:53,0.000,0.0,0.0,0.0
14/04/2022,01:43:54,-0.000,0.0,0.0,0.0
14/04/2022,01:44:53,0.001,0.0,0.0,0.0
14/04/2022,01:46:10,0.000,0.0,0.0,0.0
14/04/2022,01:47:55,0.000,0.0,0.0,0.0
14/04/2022,01:48:53,-0.000,0.0,0.0,0.0
14/04/2022,01:49:53,0.000,0.0,0.0,0.0
14/04/2022,01:50:54,-0.000,0.0,0.0,0.0
14/04/2022,01:51:54,0.000,0.0,0.0,0.0
14/04/2022,01:52:54,0.000,0.0,0.0,0.0
14/04/2022,01:53:53,0.000,0.0,0.0,0.0
14/04/2022,01:54:54,0.000,0.0,0.0,0.0
14/04/2022,01:55:58,0.000,0.0,0.0,0.0
14/04/2022,01:56:54,0.000,0.0,0.0,0.0
14/04/2022,01:57:54,0.001,0.0,0.0,0.0
14/04/2022,01:58:54,0.000,0.0,0.0,0.0
14/04/2022,01:59:46,0.001,0.0,0.0,0.0
14/04/2022,02:00:55,0.001,0.0,0.0,0.0
14/04/2022,02:01:54,0.000,0.0,0.0,0.0
14/04/2022,02:02:52,-0.000,0.0,0.0,0.0
14/04/2022,02:03:54,0.001,0.0,0.0,0.0
14/04/2022,02:05:02,0.000,0.0,0.0,0.0
14/04/2022,02:05:53,0.000,0.0,0.0,0.0
14/04/2022,02:06:54,0.000,0.0,0.0,0.0
14/04/2022,02:08:02,0.000,0.0,0.0,0.0
14/04/2022,02:09:54,0.001,0.0,0.0,0.0
14/04/2022,02:10:53,0.000,0.0,0.0,0.0
14/04/2022,02:11:54,-0.000,0.0,0.0,0.0
14/04/2022,02:12:53,0.001,0.0,0.0,0.0
14/04/2022,02:13:54,0.000,0.0,0.0,0.0
14/04/2022,02:14:55,0.001,0.0,0.0,0.0
14/04/2022,02:15:53,0.000,0.0,0.0,0.0
14/04/2022,02:16:53,0.000,0.0,0.0,0.0
14/04/2022,02:17:54,0.000,0.0,0.0,0.0
14/04/2022,02:18:54,0.000,0.0,0.0,0.0
14/04/2022,02:19:53,0.000,0.0,0.0,0.0
14/04/2022,02:20:54,0.001,0.0,0.0,0.0
14/04/2022,02:21:54,0.001,0.0,0.0,0.0
14/04/2022,02:22:53,0.001,0.0,0.0,0.0
14/04/2022,02:23:54,0.001,0.0,0.0,0.0
14/04/2022,02:24:53,0.001,0.0,0.0,0.0
14/04/2022,02:25:54,0.000,0.0,0.0,0.0
14/04/2022,02:26:54,0.000,0.0,0.0,0.0
14/04/2022,02:27:53,0.000,0.0,0.0,0.0
14/04/2022,02:28:54,0.001,0.0,0.0,0.0
14/04/2022,02:29:54,0.001,0.0,0.0,0.0
14/04/2022,02:30:54,0.001,0.0,0.0,0.0
14/04/2022,02:31:54,-0.001,0.0,0.0,0.0
14/04/2022,02:32:54,0.001,0.0,0.0,0.0
14/04/2022,02:33:54,0.000,0.0,0.0,0.0
14/04/2022,02:34:53,0.001,0.0,0.0,0.0
14/04/2022,02:36:02,-0.000,0.0,0.0,0.0
14/04/2022,02:37:55,0.001,0.0,0.0,0.0
14/04/2022,02:38:54,0.001,0.0,0.0,0.0
14/04/2022,02:39:53,0.001,0.0,0.0,0.0
14/04/2022,02:40:54,0.001,0.0,0.0,0.0
14/04/2022,02:41:54,0.001,0.0,0.0,0.0
14/04/2022,02:42:54,0.001,0.0,0.0,0.0
14/04/2022,02:43:54,-0.000,0.0,0.0,0.0
14/04/2022,02:44:54,0.001,0.0,0.0,0.0
14/04/2022,02:46:02,0.000,0.0,0.0,0.0
14/04/2022,02:46:53,0.001,0.0,0.0,0.0
14/04/2022,02:47:54,0.001,0.0,0.0,0.0
14/04/2022,02:49:01,0.001,0.0,0.0,0.0
14/04/2022,02:50:55,0.001,0.0,0.0,0.0
14/04/2022,02:51:54,0.001,0.0,0.0,0.0
14/04/2022,02:52:54,0.001,0.0,0.0,0.0
14/04/2022,02:53:54,0.000,0.0,0.0,0.0
14/04/2022,02:54:53,-0.000,0.0,0.0,0.0
14/04/2022,02:56:02,0.001,0.0,0.0,0.0
14/04/2022,02:57:02,0.001,0.0,0.0,0.0
14/04/2022,02:57:53,0.001,0.0,0.0,0.0
14/04/2022,02:58:54,0.001,0.0,0.0,0.0
14/04/2022,02:59:54,0.001,0.0,0.0,0.0
14/04/2022,03:00:54,0.001,0.0,0.0,0.0
14/04/2022,03:01:54,0.001,0.0,0.0,0.0
14/04/2022,03:03:02,0.001,0.0,0.0,0.0
14/04/2022,03:03:52,0.001,0.0,0.0,0.0
14/04/2022,03:04:53,0.001,0.0,0.0,0.0
14/04/2022,03:06:02,0.001,0.0,0.0,0.0
14/04/2022,03:06:54,0.001,0.0,0.0,0.0
14/04/2022,03:07:54,0.001,0.0,0.0,0.0
14/04/2022,03:08:54,0.001,0.0,0.0,0.0
14/04/2022,03:09:54,0.001,0.0,0.0,0.0
14/04/2022,03:10:54,0.001,0.0,0.0,0.0
14/04/2022,03:11:53,0.001,0.0,0.0,0.0
14/04/2022,03:12:53,0.001,0.0,0.0,0.0
14/04/2022,03:13:54,0.001,0.0,0.0,0.0
14/04/2022,03:14:54,0.001,0.0,0.0,0.0
14/04/2022,03:15:54,0.001,0.0,0.0,0.0
14/04/2022,03:16:54,0.001,0.0,0.0,0.0
14/04/2022,03:17:54,0.001,0.0,0.0,0.0
14/04/2022,03:18:53,0.001,0.0,0.0,0.0
14/04/2022,03:19:54,0.001,0.0,0.0,0.0
14/04/2022,03:20:54,0.001,0.0,0.0,0.0
14/04/2022,03:21:54,0.001,0.0,0.0,0.0
14/04/2022,03:22:54,0.001,0.0,0.0,0.0
14/04/2022,03:23:54,0.001,0.0,0.0,0.0
14/04/2022,03:24:54,0.001,0.0,0.0,0.0
14/04/2022,03:25:54,0.001,0.0,0.0,0.0
14/04/2022,03:27:02,0.002,0.0,0.0,0.0
14/04/2022,03:28:54,0.001,0.0,0.0,0.0
14/04/2022,03:29:54,0.001,0.0,0.0,0.0
14/04/2022,03:30:55,0.001,0.0,0.0,0.0
14/04/2022,03:31:54,0.001,0.0,0.0,0.0
14/04/2022,03:32:54,0.000,0.0,0.0,0.0
14/04/2022,03:34:03,0.001,0.0,0.0,0.0
14/04/2022,03:35:54,0.001,0.0,0.0,0.0
14/04/2022,03:36:54,0.001,0.0,0.0,0.0
14/04/2022,03:37:52,0.000,0.0,0.0,0.0
14/04/2022,03:38:54,0.001,0.0,0.0,0.0
14/04/2022,03:39:54,0.001,0.0,0.0,0.0
14/04/2022,03:40:54,0.001,0.0,0.0,0.0
14/04/2022,03:41:54,0.001,0.0,0.0,0.0
14/04/2022,03:43:07,0.001,0.0,0.0,0.0
14/04/2022,03:45:03,0.001,0.0,0.0,0.0
14/04/2022,03:46:54,0.001,0.0,0.0,0.0
14/04/2022,03:48:02,0.001,0.0,0.0,0.0
14/04/2022,03:49:55,0.001,0.0,0.0,0.0
14/04/2022,03:50:54,0.001,0.0,0.0,0.0
14/04/2022,03:51:55,0.001,0.0,0.0,0.0
14/04/2022,03:52:54,0.001,0.0,0.0,0.0
14/04/2022,03:54:02,-0.000,0.0,0.0,0.0
14/04/2022,03:54:54,0.001,0.0,0.0,0.0
14/04/2022,03:55:54,0.001,0.0,0.0,0.0
14/04/2022,03:56:54,0.001,0.0,0.0,0.0
14/04/2022,03:57:53,-0.000,0.0,0.0,0.0
14/04/2022,03:58:54,0.001,0.0,0.0,0.0
14/04/2022,03:59:54,0.002,0.0,0.0,0.0
14/04/2022,04:00:54,0.001,0.0,0.0,0.0
14/04/2022,04:01:54,0.001,0.0,0.0,0.0
14/04/2022,04:02:54,0.001,0.0,0.0,0.0
14/04/2022,04:03:54,0.001,0.0,0.0,0.0
14/04/2022,04:04:54,0.001,0.0,0.0,0.0
14/04/2022,04:05:53,0.001,0.0,0.0,0.0
14/04/2022,04:06:54,0.001,0.0,0.0,0.0
14/04/2022,04:08:03,0.001,0.0,0.0,0.0
14/04/2022,04:09:54,0.001,0.0,0.0,0.0
14/04/2022,04:10:57,0.001,0.0,0.0,0.0
14/04/2022,04:11:54,0.001,0.0,0.0,0.0
14/04/2022,04:12:55,0.001,0.0,0.0,0.0
14/04/2022,04:13:54,0.001,0.0,0.0,0.0
14/04/2022,04:15:02,0.001,0.0,0.0,0.0
14/04/2022,04:16:55,0.001,0.0,0.0,0.0
14/04/2022,04:18:02,0.001,0.0,0.0,0.0
14/04/2022,04:19:55,0.001,0.0,0.0,0.0
14/04/2022,04:20:54,0.001,0.0,0.0,0.0
14/04/2022,04:21:54,0.001,0.0,0.0,0.0
14/04/2022,04:22:54,0.001,0.0,0.0,0.0
14/04/2022,04:23:54,0.001,0.0,0.0,0.0
14/04/2022,04:25:02,0.001,0.0,0.0,0.0
14/04/2022,04:26:55,0.001,0.0,0.0,0.0
14/04/2022,04:27:54,0.001,0.0,0.0,0.0
14/04/2022,04:28:54,0.001,0.0,0.0,0.0
14/04/2022,04:29:53,0.002,0.0,0.0,0.0
14/04/2022,04:30:54,0.001,0.0,0.0,0.0
14/04/2022,04:31:53,0.001,0.0,0.0,0.0
14/04/2022,04:32:54,0.001,0.0,0.0,0.0
14/04/2022,04:33:54,0.001,0.0,0.0,0.0
14/04/2022,04:34:54,0.001,0.0,0.0,0.0
14/04/2022,04:35:54,0.001,0.0,0.0,0.0
14/04/2022,04:36:54,0.001,0.0,0.0,0.0
14/04/2022,04:37:54,0.001,0.0,0.0,0.0
14/04/2022,04:39:02,0.001,0.0,0.0,0.0
14/04/2022,04:40:55,0.001,0.0,0.0,0.0
14/04/2022,04:41:53,0.001,0.0,0.0,0.0
14/04/2022,04:42:54,0.001,0.0,0.0,0.0
14/04/2022,04:43:54,0.001,0.0,0.0,0.0
14/04/2022,04:44:53,0.001,0.0,0.0,0.0
14/04/2022,04:45:54,0.001,0.0,0.0,0.0
14/04/2022,04:46:54,0.001,0.0,0.0,0.0
14/04/2022,04:47:54,0.001,0.0,0.0,0.0
14/04/2022,04:49:02,0.001,0.0,0.0,0.0
14/04/2022,04:49:54,0.001,0.0,0.0,0.0
14/04/2022,04:50:54,0.001,0.0,0.0,0.0
14/04/2022,04:51:54,0.001,0.0,0.0,0.0
14/04/2022,04:52:54,0.001,0.0,0.0,0.0
14/04/2022,04:53:54,0.001,0.0,0.0,0.0
14/04/2022,04:54:55,0.001,0.0,0.0,0.0
14/04/2022,04:55:53,0.001,0.0,0.0,0.0
14/04/2022,04:56:54,0.001,0.0,0.0,0.0
14/04/2022,04:57:54,0.001,0.0,0.0,0.0
14/04/2022,04:59:04,0.001,0.0,0.0,0.0
14/04/2022,05:00:55,0.002,0.0,0.0,0.0
14/04/2022,05:01:54,0.001,0.0,0.0,0.0
14/04/2022,05:02:54,0.002,0.0,0.0,0.0
14/04/2022,05:03:56,0.002,0.0,0.0,0.0
14/04/2022,05:04:54,0.001,0.0,0.0,0.0
14/04/2022,05:05:54,0.002,0.0,0.0,0.0
14/04/2022,05:06:54,0.001,0.0,0.0,0.0
14/04/2022,05:07:54,0.002,0.0,0.0,0.0
14/04/2022,05:08:54,0.002,0.0,0.0,0.0
14/04/2022,05:09:54,0.002,0.0,0.0,0.0
14/04/2022,05:10:54,0.001,0.0,0.0,0.0
14/04/2022,05:11:54,0.002,0.0,0.0,0.0
14/04/2022,05:12:53,0.003,0.0,0.0,0.0
14/04/2022,05:13:54,0.002,0.0,0.0,0.0
14/04/2022,05:14:54,0.003,0.0,0.0,0.0
14/04/2022,05:15:54,0.003,0.0,0.0,0.0
14/04/2022,05:17:02,0.003,0.0,0.0,0.0
14/04/2022,05:17:53,0.003,0.0,0.0,0.0
14/04/2022,05:18:54,0.003,0.0,0.0,0.0
14/04/2022,05:20:02,0.004,0.0,0.0,0.0
14/04/2022,05:20:53,0.003,0.0,0.0,0.0
14/04/2022,05:21:54,0.004,0.0,0.0,0.0
14/04/2022,05:23:03,0.004,0.0,0.0,0.0
14/04/2022,05:23:54,0.004,0.0,0.0,0.0
14/04/2022,05:24:54,0.004,0.0,0.0,0.0
14/04/2022,05:25:54,0.005,0.0,0.0,0.0
14/04/2022,05:26:54,0.004,0.0,0.0,0.0
14/04/2022,05:27:54,0.005,0.0,0.0,0.0
14/04/2022,05:28:54,0.005,0.0,0.0,0.0
14/04/2022,05:30:03,0.005,0.0,0.0,0.0
14/04/2022,05:30:54,0.006,0.0,0.0,0.0
14/04/2022,05:31:54,0.006,0.0,0.0,0.0
14/04/2022,05:32:54,0.007,0.0,0.0,0.0
14/04/2022,05:33:54,0.006,0.0,0.0,0.0
14/04/2022,05:34:54,0.007,0.0,0.0,0.0
14/04/2022,05:35:54,0.008,0.0,0.0,0.0
14/04/2022,05:36:55,0.008,0.0,0.001,0.001
14/04/2022,05:37:54,0.008,0.0,0.001,0.0
14/04/2022,05:38:53,0.009,0.0,0.001,0.0
14/04/2022,05:39:54,0.009,0.0,0.001,0.0
14/04/2022,05:41:03,0.009,0.0,0.001,0.0
14/04/2022,05:42:55,0.010,0.0,0.001,0.0
14/04/2022,05:43:54,0.010,0.0,0.002,0.001
14/04/2022,05:44:54,0.010,0.0,0.002,0.0
14/04/2022,05:45:54,0.011,0.0,0.002,0.0
14/04/2022,05:46:54,0.012,0.0,0.002,0.0
14/04/2022,05:47:54,0.012,0.0,0.002,0.0
14/04/2022,05:48:54,0.013,0.0,0.003,0.001
14/04/2022,05:49:54,0.014,0.0,0.003,0.0
14/04/2022,05:51:02,0.014,0.0,0.003,0.0
14/04/2022,05:52:55,0.016,0.0,0.003,0.0
14/04/2022,05:53:54,0.016,0.0,0.004,0.001
14/04/2022,05:54:54,0.016,0.0,0.004,0.0
14/04/2022,05:55:54,0.018,0.0,0.004,0.0
14/04/2022,05:56:55,0.018,0.0,0.005,0.001
14/04/2022,05:58:55,0.019,0.0,0.005,0.0
14/04/2022,05:59:54,0.019,0.0,0.005,0.0
14/04/2022,06:01:03,0.020,0.0,0.006,0.001
14/04/2022,06:02:54,0.022,0.0,0.006,0.0
14/04/2022,06:03:55,0.022,0.0,0.007,0.001
14/04/2022,06:04:54,0.022,0.0,0.007,0.0
14/04/2022,06:05:54,0.022,0.0,0.008,0.001
14/04/2022,06:06:54,0.022,0.0,0.008,0.0
14/04/2022,06:08:02,0.023,0.0,0.008,0.0
14/04/2022,06:09:55,0.025,0.0,0.009,0.001
14/04/2022,06:10:54,0.026,0.0,0.01,0.001
14/04/2022,06:11:54,0.027,0.0,0.01,0.0
14/04/2022,06:12:54,0.028,0.0,0.01,0.0
14/04/2022,06:13:54,0.029,0.0,0.011,0.001
14/04/2022,06:14:54,0.029,0.0,0.011,0.0
14/04/2022,06:16:02,0.030,0.0,0.012,0.001
14/04/2022,06:16:54,0.031,0.0,0.012,0.0
14/04/2022,06:17:54,0.032,0.0,0.013,0.001
14/04/2022,06:18:54,0.032,0.0,0.013,0.0
14/04/2022,06:19:54,0.031,0.0,0.014,0.001
14/04/2022,06:20:54,0.032,0.0,0.014,0.0
14/04/2022,06:21:54,0.031,0.0,0.015,0.001
14/04/2022,06:22:55,0.031,0.0,0.016,0.001
14/04/2022,06:23:54,0.032,0.0,0.016,0.0
14/04/2022,06:24:54,0.034,0.0,0.017,0.001
14/04/2022,06:25:55,0.035,0.0,0.017,0.0
14/04/2022,06:26:54,0.035,0.0,0.018,0.001
14/04/2022,06:27:54,0.036,0.0,0.018,0.0
14/04/2022,06:29:03,0.038,0.0,0.019,0.001
14/04/2022,06:30:55,0.039,0.0,0.02,0.001
14/04/2022,06:31:54,0.042,0.0,0.021,0.001
14/04/2022,06:32:54,0.044,0.0,0.022,0.001
14/04/2022,06:33:54,0.047,0.0,0.022,0.0
14/04/2022,06:34:54,0.049,0.0,0.023,0.001
14/04/2022,06:35:54,0.051,0.0,0.024,0.001
14/04/2022,06:36:54,0.054,0.0,0.025,0.001
14/04/2022,06:37:54,0.056,0.0,0.026,0.001
14/04/2022,06:39:02,0.061,0.0,0.027,0.001
14/04/2022,06:39:54,0.063,0.0,0.028,0.001
14/04/2022,06:40:54,0.066,0.0,0.029,0.001
14/04/2022,06:41:54,0.069,0.0,0.03,0.001
14/04/2022,06:42:54,0.072,0.0,0.031,0.001
14/04/2022,06:43:54,0.075,0.0,0.032,0.001
14/04/2022,06:44:54,0.078,0.0,0.034,0.002
14/04/2022,06:45:54,0.081,0.0,0.035,0.001
14/04/2022,06:46:54,0.082,0.0,0.036,0.001
14/04/2022,06:47:54,0.083,0.0,0.038,0.002
14/04/2022,06:48:55,0.086,0.0,0.039,0.001
14/04/2022,06:49:54,0.088,0.0,0.041,0.002
14/04/2022,06:50:54,0.090,0.0,0.042,0.001
14/04/2022,06:51:54,0.092,0.0,0.044,0.002
14/04/2022,06:53:02,0.095,0.0,0.045,0.001
14/04/2022,06:53:54,0.095,0.0,0.047,0.002
14/04/2022,06:54:54,0.099,0.0,0.048,0.001
14/04/2022,06:55:55,0.101,0.0,0.05,0.002
14/04/2022,06:56:54,0.105,0.0,0.052,0.002
14/04/2022,06:57:54,0.106,0.0,0.053,0.001
14/04/2022,06:58:54,0.106,0.0,0.055,0.002
14/04/2022,06:59:54,0.111,0.0,0.057,0.002
14/04/2022,07:00:54,0.114,0.0,0.059,0.002
14/04/2022,07:01:54,0.113,0.0,0.061,0.002
14/04/2022,07:03:02,0.113,0.0,0.063,0.002
14/04/2022,07:04:55,0.115,0.0,0.066,0.003
14/04/2022,07:05:54,0.114,0.0,0.068,0.002
14/04/2022,07:06:54,0.113,0.0,0.07,0.002
14/04/2022,07:07:54,0.113,0.0,0.072,0.002
14/04/2022,07:08:54,0.112,0.0,0.074,0.002
14/04/2022,07:09:56,0.113,0.0,0.076,0.002
14/04/2022,07:10:54,0.114,0.0,0.078,0.002
14/04/2022,07:11:54,0.116,0.0,0.08,0.002
14/04/2022,07:13:03,0.119,0.0,0.082,0.002
14/04/2022,07:13:54,0.121,0.0,0.084,0.002
14/04/2022,07:14:54,0.121,0.0,0.086,0.002
14/04/2022,07:15:55,0.122,0.0,0.088,0.002
14/04/2022,07:16:53,0.123,0.0,0.09,0.002
14/04/2022,07:17:54,0.124,0.0,0.092,0.002
14/04/2022,07:18:54,0.124,0.0,0.094,0.002
14/04/2022,07:19:54,0.122,0.0,0.096,0.002
14/04/2022,07:20:55,0.120,0.0,0.098,0.002
14/04/2022,07:21:55,0.117,0.0,0.1,0.002
14/04/2022,07:22:55,0.119,0.0,0.102,0.002
14/04/2022,07:24:03,0.119,0.0,0.104,0.002
14/04/2022,07:24:54,0.121,0.0,0.106,0.002
14/04/2022,07:25:54,0.122,0.0,0.108,0.002
14/04/2022,07:27:03,0.124,0.0,0.11,0.002
14/04/2022,07:28:55,0.127,0.0,0.114,0.004
14/04/2022,07:29:54,0.128,0.0,0.116,0.002
14/04/2022,07:30:54,0.127,0.0,0.118,0.002
14/04/2022,07:31:54,0.126,0.0,0.121,0.003
14/04/2022,07:32:54,0.125,0.0,0.123,0.002
14/04/2022,07:34:02,0.124,0.0,0.125,0.002
14/04/2022,07:35:55,0.124,0.0,0.129,0.004
14/04/2022,07:37:02,0.121,0.0,0.131,0.002
14/04/2022,07:38:02,0.121,0.0,0.133,0.002
14/04/2022,07:39:55,0.121,0.0,0.137,0.004
14/04/2022,07:41:07,0.121,0.0,0.139,0.002
14/04/2022,07:42:55,0.124,0.0,0.143,0.004
14/04/2022,07:43:54,0.126,0.0,0.145,0.002
14/04/2022,07:44:55,0.127,0.0,0.147,0.002
14/04/2022,07:45:54,0.129,0.0,0.149,0.002
14/04/2022,07:47:03,0.132,0.0,0.152,0.003
14/04/2022,07:49:03,0.136,0.0,0.156,0.004
14/04/2022,07:50:55,0.140,0.0,0.161,0.005
14/04/2022,07:51:54,0.143,0.0,0.163,0.002
14/04/2022,07:52:54,0.146,0.0,0.165,0.002
14/04/2022,07:53:54,0.149,0.0,0.168,0.003
14/04/2022,07:55:02,0.151,0.0,0.171,0.003
14/04/2022,07:56:55,0.154,0.0,0.175,0.004
14/04/2022,07:58:02,0.155,0.0,0.178,0.003
14/04/2022,07:59:55,0.162,0.0,0.183,0.005
14/04/2022,08:00:54,0.165,0.0,0.186,0.003
14/04/2022,08:01:54,0.168,0.0,0.189,0.003
14/04/2022,08:02:54,0.170,0.0,0.192,0.003
14/04/2022,08:03:54,0.174,0.0,0.194,0.002
14/04/2022,08:04:54,0.178,0.0,0.197,0.003
14/04/2022,08:05:54,0.184,0.0,0.2,0.003
14/04/2022,08:06:54,0.192,0.0,0.203,0.003
14/04/2022,08:08:02,0.202,0.0,0.207,0.004
14/04/2022,08:09:55,0.218,1.0,0.214,0.007
14/04/2022,08:10:54,0.225,1.0,0.217,0.003
14/04/2022,08:11:54,0.231,1.0,0.221,0.004
14/04/2022,08:12:54,0.234,1.0,0.225,0.004
14/04/2022,08:13:54,0.239,1.0,0.229,0.004
14/04/2022,08:15:07,0.237,1.0,0.234,0.005
14/04/2022,08:16:55,0.239,1.0,0.241,0.007
14/04/2022,08:18:02,0.239,1.0,0.245,0.004
14/04/2022,08:20:03,0.246,1.0,0.254,0.009
14/04/2022,08:21:55,0.255,1.0,0.261,0.007
14/04/2022,08:22:54,0.259,1.0,0.266,0.005
14/04/2022,08:23:54,0.263,1.0,0.27,0.004
14/04/2022,08:24:54,0.265,1.0,0.274,0.004
14/04/2022,08:25:54,0.264,1.0,0.279,0.005
14/04/2022,08:26:54,0.263,1.0,0.283,0.004
14/04/2022,08:28:02,0.260,1.0,0.288,0.005
14/04/2022,08:30:03,0.260,1.0,0.297,0.009
14/04/2022,08:31:55,0.267,1.0,0.305,0.008
14/04/2022,08:32:55,0.273,1.0,0.309,0.004
14/04/2022,08:33:56,0.282,1.0,0.314,0.005
14/04/2022,08:34:54,0.289,1.0,0.319,0.005
14/04/2022,08:35:54,0.296,1.0,0.324,0.005
14/04/2022,08:36:55,0.296,1.0,0.329,0.005
14/04/2022,08:37:54,0.292,1.0,0.334,0.005
14/04/2022,08:39:02,0.289,1.0,0.339,0.005
14/04/2022,08:40:55,0.289,1.0,0.348,0.009
14/04/2022,08:41:54,0.293,1.0,0.353,0.005
14/04/2022,08:42:54,0.300,1.0,0.358,0.005
14/04/2022,08:43:55,0.307,1.0,0.363,0.005
14/04/2022,08:44:54,0.313,1.0,0.368,0.005
14/04/2022,08:45:54,0.318,1.0,0.373,0.005
14/04/2022,08:46:54,0.323,1.0,0.379,0.006
14/04/2022,08:47:54,0.326,1.0,0.384,0.005
14/04/2022,08:49:02,0.334,1.0,0.39,0.006
14/04/2022,08:50:55,0.350,1.0,0.401,0.011
14/04/2022,08:51:54,0.361,1.0,0.407,0.006
14/04/2022,08:52:55,0.370,1.0,0.413,0.006
14/04/2022,08:53:54,0.373,1.0,0.419,0.006
14/04/2022,08:54:54,0.375,1.0,0.425,0.006
14/04/2022,08:55:54,0.378,1.0,0.432,0.007
14/04/2022,08:56:55,0.384,1.0,0.438,0.006
14/04/2022,08:57:54,0.387,1.0,0.444,0.006
14/04/2022,08:58:54,0.389,1.0,0.451,0.007
14/04/2022,08:59:55,0.385,1.0,0.457,0.006
14/04/2022,09:00:54,0.383,1.0,0.464,0.007
14/04/2022,09:01:55,0.382,1.0,0.47,0.006
14/04/2022,09:02:54,0.385,1.0,0.477,0.007
14/04/2022,09:03:54,0.392,1.0,0.483,0.006
14/04/2022,09:04:54,0.399,1.0,0.49,0.007
14/04/2022,09:05:55,0.408,1.0,0.496,0.006
14/04/2022,09:06:54,0.417,1.0,0.503,0.007
14/04/2022,09:07:54,0.426,1.0,0.51,0.007
14/04/2022,09:08:54,0.437,1.0,0.517,0.007
14/04/2022,09:10:03,0.445,1.0,0.526,0.009
14/04/2022,09:10:54,0.451,1.0,0.532,0.006
14/04/2022,09:11:55,0.454,1.0,0.54,0.008
14/04/2022,09:12:54,0.451,1.0,0.547,0.007
14/04/2022,09:13:54,0.450,1.0,0.555,0.008
14/04/2022,09:14:54,0.452,1.0,0.562,0.007
14/04/2022,09:15:54,0.460,1.0,0.57,0.008
14/04/2022,09:16:55,0.474,1.0,0.578,0.008
14/04/2022,09:17:54,0.482,1.0,0.586,0.008
14/04/2022,09:18:54,0.488,1.0,0.594,0.008
14/04/2022,09:20:03,0.489,1.0,0.603,0.009
14/04/2022,09:21:55,0.496,1.0,0.618,0.015
14/04/2022,09:23:02,0.506,1.0,0.628,0.01
14/04/2022,09:23:54,0.515,1.0,0.635,0.007
14/04/2022,09:24:55,0.519,1.0,0.644,0.009
14/04/2022,09:25:54,0.521,1.0,0.653,0.009
14/04/2022,09:26:54,0.523,1.0,0.661,0.008
14/04/2022,09:27:54,0.516,1.0,0.67,0.009
14/04/2022,09:28:54,0.514,1.0,0.679,0.009
14/04/2022,09:30:03,0.514,1.0,0.689,0.01
14/04/2022,09:30:54,0.515,1.0,0.696,0.007
14/04/2022,09:31:54,0.514,1.0,0.704,0.008
14/04/2022,09:33:03,0.507,1.0,0.714,0.01
14/04/2022,09:34:03,0.498,1.0,0.723,0.009
14/04/2022,09:35:55,0.485,1.0,0.738,0.015
14/04/2022,09:36:54,0.483,1.0,0.746,0.008
14/04/2022,09:37:55,0.485,1.0,0.754,0.008
14/04/2022,09:38:55,0.489,1.0,0.762,0.008
14/04/2022,09:39:54,0.491,1.0,0.77,0.008
14/04/2022,09:40:54,0.489,1.0,0.778,0.008
14/04/2022,09:41:54,0.486,1.0,0.786,0.008
14/04/2022,09:42:54,0.481,1.0,0.794,0.008
14/04/2022,09:44:03,0.474,1.0,0.803,0.009
14/04/2022,09:44:54,0.473,1.0,0.81,0.007
14/04/2022,09:45:54,0.475,1.0,0.818,0.008
14/04/2022,09:46:55,0.476,1.0,0.826,0.008
14/04/2022,09:47:54,0.475,1.0,0.834,0.008
14/04/2022,09:48:55,0.473,1.0,0.842,0.008
14/04/2022,09:49:54,0.465,1.0,0.85,0.008
14/04/2022,09:50:54,0.456,1.0,0.857,0.007
14/04/2022,09:51:55,0.447,1.0,0.865,0.008
14/04/2022,09:52:53,0.441,1.0,0.872,0.007
14/04/2022,09:54:04,0.437,1.0,0.881,0.009
14/04/2022,09:55:55,0.434,1.0,0.894,0.013
14/04/2022,09:56:54,0.433,1.0,0.901,0.007
14/04/2022,09:57:54,0.434,1.0,0.909,0.008
14/04/2022,09:58:55,0.434,1.0,0.916,0.007
14/04/2022,09:59:54,0.434,1.0,0.923,0.007
14/04/2022,10:00:55,0.435,1.0,0.931,0.008
14/04/2022,10:01:54,0.438,1.0,0.938,0.007
14/04/2022,10:02:55,0.444,1.0,0.945,0.007
14/04/2022,10:04:02,0.452,1.0,0.953,0.008
14/04/2022,10:05:55,0.474,1.0,0.968,0.015
14/04/2022,10:06:55,0.489,1.0,0.976,0.008
14/04/2022,10:07:54,0.501,1.0,0.984,0.008
14/04/2022,10:09:03,0.521,1.0,0.994,0.01
14/04/2022,10:09:54,0.533,1.0,1.001,0.007
14/04/2022,10:10:55,0.544,1.0,1.01,0.009
14/04/2022,10:11:54,0.555,1.0,1.019,0.009
14/04/2022,10:12:55,0.563,1.0,1.029,0.01
14/04/2022,10:13:55,0.574,1.0,1.038,0.009
14/04/2022,10:14:54,0.582,1.0,1.048,0.01
14/04/2022,10:15:55,0.587,1.0,1.058,0.01
14/04/2022,10:17:03,0.587,1.0,1.069,0.011
14/04/2022,10:17:55,0.592,1.0,1.077,0.008
14/04/2022,10:18:55,0.604,1.0,1.087,0.01
14/04/2022,10:19:55,0.627,1.0,1.098,0.011
14/04/2022,10:20:54,0.656,2.0,1.108,0.01
14/04/2022,10:21:55,0.685,2.0,1.119,0.011
14/04/2022,10:22:55,0.714,2.0,1.131,0.012
14/04/2022,10:23:46,0.730,2.0,1.141,0.01
14/04/2022,10:24:55,0.747,2.0,1.155,0.014
14/04/2022,10:25:54,0.765,2.0,1.168,0.013
14/04/2022,10:26:54,0.777,2.0,1.181,0.013
14/04/2022,10:27:54,0.787,2.0,1.194,0.013
14/04/2022,10:28:55,0.801,2.0,1.207,0.013
14/04/2022,10:29:55,0.810,2.0,1.221,0.014
14/04/2022,10:30:54,0.809,2.0,1.234,0.013
14/04/2022,10:31:54,0.796,2.0,1.248,0.014
14/04/2022,10:32:55,0.781,2.0,1.261,0.013
14/04/2022,10:33:54,0.769,2.0,1.274,0.013
14/04/2022,10:34:54,0.763,2.0,1.286,0.012
14/04/2022,10:35:56,0.764,2.0,1.3,0.014
14/04/2022,10:37:03,0.763,2.0,1.314,0.014
14/04/2022,10:37:54,0.766,2.0,1.325,0.011
14/04/2022,10:38:54,0.768,2.0,1.337,0.012
14/04/2022,10:39:55,0.771,2.0,1.35,0.013
14/04/2022,10:40:55,0.777,2.0,1.363,0.013
14/04/2022,10:41:55,0.776,2.0,1.376,0.013
14/04/2022,10:42:54,0.770,2.0,1.389,0.013
14/04/2022,10:43:55,0.768,2.0,1.402,0.013
14/04/2022,10:44:54,0.774,2.0,1.415,0.013
14/04/2022,10:45:55,0.787,2.0,1.428,0.013
14/04/2022,10:46:54,0.800,2.0,1.441,0.013
14/04/2022,10:47:54,0.811,2.0,1.454,0.013
14/04/2022,10:48:55,0.823,2.0,1.468,0.014
14/04/2022,10:49:54,0.824,2.0,1.482,0.014
14/04/2022,10:51:03,0.820,2.0,1.498,0.016
14/04/2022,10:51:54,0.818,2.0,1.509,0.011
14/04/2022,10:52:54,0.819,2.0,1.523,0.014